Flight Track Log - Related Links

Times and Time Zones

All times are in EST time to prevent confusion due to time zone crossing. See the ASQ5874 flight status page for this flight to view local times or setup timezone preferences in your user account.

Time Position Orientation Groundspeed Altitude Reporting Facility
EST Latitude Longitude Course Direction KTS MPH feet Rate Location/Type
Fri 07:14:08 AM 37.6686 -97.4156 53° Northeast 146 168 2,100  Level Kansas City Center
Fri 07:14:26 AM 37.6786 -97.4086 29° Northeast 147 169 2,900 2,051 Climbing Kansas City Center
Fri 07:15:27 AM 37.7150 -97.3739 37° Northeast 173 199 4,800 1,800 Climbing Kansas City Center
Fri 07:15:36 AM 37.7194 -97.3675 49° Northeast 184 212 5,000 1,286 Climbing Kansas City Center
Fri 07:16:37 AM 37.7567 -97.3078 52° Northeast 207 238 6,300 1,587 Climbing Kansas City Center
Fri 07:17:00 AM 37.8863 -96.9807 52° Northeast  Level Estimated
Fri 07:17:37 AM 37.8025 -97.2333 52° Northeast 262 302 8,200  Level Kansas City Center
Fri 07:18:00 AM 37.9452 -96.8671 50° Northeast  Level Estimated
Fri 07:18:38 AM 37.8517 -97.1533 52° Northeast 281 323 9,800  Level Kansas City Center
Fri 07:19:00 AM 38.0039 -96.7534 53° Northeast  Level Estimated
Fri 07:19:38 AM 37.9033 -97.0692 52° Northeast 307 353 11,000  Level Kansas City Center
Fri 07:20:39 AM 37.9617 -96.9725 53° Northeast 339 390 12,100 1,041 Climbing Kansas City Center
Fri 07:21:39 AM 38.0253 -96.8697 52° Northeast 367 422 13,100 992 Climbing Kansas City Center
Fri 07:22:40 AM 38.0911 -96.7631 52° Northeast 381 438 14,100 1,041 Climbing Kansas City Center
Fri 07:23:40 AM 38.1583 -96.6517 52° Northeast 393 452 15,200 1,091 Climbing Kansas City Center
Fri 07:24:41 AM 38.2278 -96.5378 52° Northeast 406 467 16,300 1,339 Climbing Kansas City Center
Fri 07:25:41 AM 38.3036 -96.4119 52° Northeast 402 463 17,900 1,140 Climbing Kansas City Center
Fri 07:26:42 AM 38.3692 -96.3028 53° Northeast 407 468 18,600 1,041 Climbing Kansas City Center
Fri 07:27:42 AM 38.4347 -96.1922 53° Northeast 407 468 20,000 1,438 Climbing Kansas City Center
Fri 07:28:43 AM 38.5136 -96.0631 52° Northeast 412 474 21,500 1,279 Climbing Kansas City Center
Fri 07:29:44 AM 38.5819 -95.9456 53° Northeast 424 488 22,600 1,091 Climbing Kansas City Center
Fri 07:30:44 AM 38.6528 -95.8272 53° Northeast 435 501 23,700 1,091 Climbing Kansas City Center
Fri 07:31:45 AM 38.7228 -95.7064 53° Northeast 440 506 24,800 1,131 Climbing Kansas City Center
Fri 07:32:46 AM 38.8069 -95.5650 53° Northeast 447 514 26,000 1,131 Climbing Kansas City Center
Fri 07:33:47 AM 38.8772 -95.4433 53° Northeast 445 512 27,100 1,140 Climbing Kansas City Center
Fri 07:34:47 AM 38.9597 -95.3033 53° Northeast 443 510 28,300 1,140 Climbing Kansas City Center
Fri 07:35:48 AM 39.0325 -95.1769 53° Northeast 443 510 29,400 1,033 Climbing Kansas City Center
Fri 07:36:49 AM 39.0961 -95.0644 54° Northeast 435 501 30,400 793 Climbing Kansas City Center
Fri 07:37:49 AM 39.1781 -94.9236 53° Northeast 444 511 31,000 298 Climbing Kansas City Center
Fri 07:38:50 AM 39.2519 -94.7933 54° Northeast 466 536 31,000  Level Kansas City Center
Fri 07:39:51 AM 39.3219 -94.6450 59° Northeast 494 568 31,000  Level Kansas City Center
Fri 07:40:52 AM 39.3994 -94.4597 62° Northeast 524 603 31,000  Level Kansas City Center
Fri 07:41:52 AM 39.4656 -94.2964 62° Northeast 533 613 31,000  Level Kansas City Center
Fri 07:42:53 AM 39.5414 -94.1067 63° Northeast 532 612 31,000  Level Kansas City Center
Fri 07:43:54 AM 39.6064 -93.9439 63° Northeast 532 612 31,000  Level Kansas City Center
Fri 07:44:55 AM 39.6722 -93.7808 62° Northeast 533 613 31,000  Level Kansas City Center
Fri 07:45:56 AM 39.7400 -93.6097 63° Northeast 539 620 31,000  Level Kansas City Center
Fri 07:46:57 AM 39.8078 -93.4358 63° Northeast 541 623 31,000  Level Kansas City Center
Fri 07:47:57 AM 39.8775 -93.2628 62° Northeast 545 627 31,000  Level Kansas City Center
Fri 07:48:58 AM 39.9453 -93.0844 64° Northeast 552 635 31,000  Level Kansas City Center
Fri 07:49:59 AM 40.0131 -92.9083 63° Northeast 550 633 31,000  Level Kansas City Center
Fri 07:51:00 AM 40.0875 -92.7144 63° Northeast 544 626 31,000  Level Kansas City Center
Fri 07:52:01 AM 40.1608 -92.5153 64° Northeast 543 625 31,000  Level Kansas City Center
Fri 07:53:02 AM 40.2211 -92.3547 64° Northeast 542 624 31,000  Level Kansas City Center
Fri 07:54:03 AM 40.2839 -92.1797 65° Northeast 543 625 31,000  Level Kansas City Center
Fri 07:55:04 AM 40.3458 -92.0033 65° Northeast 540 621 31,000  Level Kansas City Center
Fri 07:56:05 AM 40.4089 -91.8261 65° Northeast 541 623 31,000  Level Kansas City Center
Fri 07:57:05 AM 40.4831 -91.6117 65° Northeast 542 624 31,000  Level Kansas City Center
Fri 07:58:06 AM 40.5425 -91.4314 66° East 541 623 31,000  Level Kansas City Center
Fri 07:59:07 AM 40.5958 -91.2753 66° East 544 626 31,000  Level Kansas City Center
Fri 08:00:13 AM 40.6719 -91.0589 65° Northeast 544 626 31,000  Level Chicago Center
Fri 08:01:15 AM 40.7342 -90.8753 66° East 546 628 31,000  Level Chicago Center
Fri 08:02:17 AM 40.7947 -90.6917 66° East 545 627 31,000  Level Chicago Center
Fri 08:03:18 AM 40.8558 -90.5078 66° East 545 627 31,000 -49 Level Chicago Center
Fri 08:04:20 AM 40.9189 -90.3214 66° East 551 634 30,900 -532 Descending Chicago Center
Fri 08:05:22 AM 40.9808 -90.1336 66° East 550 633 29,900 -976 Descending Chicago Center
Fri 08:06:23 AM 41.0447 -89.9414 66° East 559 643 28,900 -1,659 Descending Chicago Center
Fri 08:07:25 AM 41.1183 -89.7175 66° East 546 628 26,500 -2,371 Descending Chicago Center
Fri 08:08:27 AM 41.1833 -89.5314 65° Northeast 551 634 24,000 -2,341 Descending Chicago Center
Fri 08:09:28 AM 41.2556 -89.3561 61° Northeast 540 621 21,700 -2,244 Descending Chicago Center
Fri 08:10:30 AM 41.3206 -89.1944 62° Northeast 497 572 19,400 -2,419 Descending Chicago Center
Fri 08:11:32 AM 41.3761 -89.0525 62° Northeast 467 537 16,700 -3,194 Descending Chicago Center
Fri 08:12:34 AM 41.4428 -88.8856 62° Northeast 427 491 12,800 -2,293 Descending Chicago Center
Fri 08:13:35 AM 41.4925 -88.7564 63° Northeast 396 456 12,000 -390 Descending Chicago Center
Fri 08:14:37 AM 41.5433 -88.6306 62° Northeast 387 445 12,000 48 Level Chicago Center
Fri 08:15:39 AM 41.6039 -88.5147 55° Northeast 381 438 12,100 -98 Climbing Chicago Center
Fri 08:16:40 AM 41.6756 -88.4094 48° Northeast 381 438 11,800 -878 Descending Chicago Center
Fri 08:17:42 AM 41.7444 -88.3181 45° Northeast 350 403 10,300 -1,258 Descending Chicago Center
Fri 08:18:44 AM 41.8083 -88.2422 41° Northeast 310 357 9,200 -812 Descending Chicago Center
Fri 08:20:32 AM 41.8833 -88.0667 60° Northeast 279 321 8,000 -393 Descending Chicago TRACON
Fri 08:21:32 AM 41.8833 -87.9667 90° East 266 306 8,100  Climbing Chicago TRACON
Fri 08:22:32 AM 41.8833 -87.8833 90° East 237 273 8,000 -286 Descending Chicago TRACON
Fri 08:23:38 AM 41.8833 -87.7833 90° East 227 261 7,500 -429 Descending Chicago TRACON
Fri 08:24:38 AM 41.8833 -87.7000 90° East 224 258 7,100 -478 Descending Chicago TRACON
Fri 08:25:56 AM 41.8833 -87.6008 90° East 236 272 6,400 -475 Descending Chicago Center
Fri 08:26:57 AM 41.8839 -87.5083 90° East 244 281 6,000 -107 Descending Chicago Center
Fri 08:28:45 AM 41.8833 -87.3333 90° East 250 288 6,100 -250 Climbing Chicago TRACON
Fri 08:29:45 AM 41.9500 -87.3167 11° North 217 250 5,300 -579 Descending Chicago TRACON
Fri 08:30:39 AM 41.9667 -87.3667 294° West 171 197 5,000 -167 Descending Chicago TRACON
Fri 08:31:33 AM 41.9667 -87.4333 270° West 166 191 5,000  Level Chicago TRACON
Fri 08:32:06 AM 41.9661 -87.4564 268° West 175 201 5,000  Level Chicago Center
Fri 08:33:08 AM 41.9661 -87.5189 270° West 170 196 5,000  Level Chicago Center
Fri 08:34:10 AM 41.9656 -87.5803 269° West 168 193 5,000 -290 Level Chicago Center
Fri 08:35:12 AM 41.9656 -87.6539 270° West 166 191 4,400 -829 Descending Chicago Center
Fri 08:36:13 AM 41.9656 -87.7197 270° West 170 196 3,300 -1,024 Descending Chicago Center
Fri 08:37:15 AM 41.9656 -87.7878 270° West 176 203 2,300 -919 Descending Chicago Center
Fri 08:38:17 AM 41.9658 -87.8447 270° West 169 194 1,400 -435 Descending Chicago Center
Fri 08:39:19 AM 41.9672 -87.9000 272° West 166 191 1,400  Level Chicago Center

Login

Don't have an account? Register now (free) for customized features, flight alerts, and more!